Date String (YYYY-MM-DD hh:mm:ss) UTC,Instrument flags,absolute air pressure of the measurement (hPa),sample flow rate (lpm),inlet stack bypass flow (lpm),air temperature of the measurement (°C),ambient temperature measured by the external sensor (°C),aerosol sample conditioner tube jacket temperature (°C),OPC LED temperature (°C),internal box temperature (°C),relative humidity of the measurement (%),span deviation,mass concentration of particles derived from Lorenz-Mie calculation of OPC scattering (μg/m³),mass concentration of particles derived from Lorenz-Mie calculation of OPC scattering (μg/m³),mass concentration of particles derived from Lorenz-Mie calculation of OPC scattering (μg/m³)
DateTimeUTC,F1_M11,P_M11,Q1_M11,Q2_M11,T1_M11,T2_M11,T3_M11,T4_M11,T5_M11,U1_M11,ZSPAN_M11,X0_M11,X2_M11,X1_M11
2023-11-21 16:00:00,SystemResetWarning,0840.7,5.01,000.00,019.5,019.0,000.0,027.6,020.8,17.2,0000.0,0001.94,0001.45,0001.23
2023-11-21 16:01:00,SystemResetWarning,0840.8,5.00,000.00,019.5,019.0,000.0,027.6,020.9,17.0,0000.0,0001.97,0001.47,0001.23
2023-11-21 16:02:00,SystemResetWarning,0840.8,4.99,000.00,019.5,019.0,000.0,027.6,020.9,17.3,0000.0,0002.06,0001.51,0001.24
2023-11-21 16:03:00,SystemResetWarning,0840.8,4.99,000.00,019.6,019.0,000.0,027.7,020.9,16.7,0000.0,0002.03,0001.49,0001.23
2023-11-21 16:04:00,SystemResetWarning,0840.8,5.00,000.00,019.6,019.0,000.0,027.7,020.9,16.6,0000.0,0002.50,0001.46,0001.23
2023-11-21 16:05:00,SystemResetWarning,0840.7,5.00,000.00,019.6,019.1,000.0,027.7,020.9,16.4,0000.0,0002.87,0001.47,0001.23
2023-11-21 16:06:00,SystemResetWarning,0840.8,5.01,000.00,019.6,019.1,000.0,027.7,020.9,16.4,0000.0,0002.88,0001.47,0001.22
2023-11-21 16:07:00,SystemResetWarning,0840.8,5.01,000.00,019.6,019.1,000.0,027.7,021.0,16.6,0000.0,0002.86,0001.46,0001.22
2023-11-21 16:08:00,SystemResetWarning,0840.7,5.00,000.00,019.7,019.1,000.0,027.8,021.0,16.5,0000.0,0002.80,0001.44,0001.22
2023-11-21 16:09:00,SystemResetWarning,0840.7,5.00,000.00,019.7,019.1,000.0,027.8,021.0,16.2,0000.0,0002.74,0001.42,0001.22
2023-11-21 16:10:00,SystemResetWarning,0840.8,5.01,000.00,019.7,019.2,000.0,027.8,021.0,16.4,0000.0,0002.71,0001.41,0001.21
2023-11-21 16:11:00,SystemResetWarning,0840.8,5.00,000.00,019.7,019.2,000.0,027.8,021.0,16.4,0000.0,0002.74,0001.41,0001.20
2023-11-21 16:12:00,SystemResetWarning,0840.8,4.99,000.00,019.7,019.2,000.0,027.8,021.1,16.4,0000.0,0002.72,0001.40,0001.20
2023-11-21 16:13:00,SystemResetWarning,0840.7,4.99,000.00,019.8,019.2,000.0,027.8,021.1,16.6,0000.0,0002.68,0001.39,0001.21
2023-11-21 16:14:00,SystemResetWarning,0840.7,5.00,000.00,019.8,019.2,000.0,027.9,021.1,16.5,0000.0,0003.73,0001.37,0001.21
2023-11-21 16:15:00,SystemResetWarning,0840.7,5.00,000.00,019.8,019.2,000.0,027.9,021.1,16.4,0000.0,0004.20,0001.36,0001.21
2023-11-21 16:16:00,SystemResetWarning,0840.8,5.00,000.00,019.8,019.3,000.0,027.9,021.1,16.3,0000.0,0003.47,0001.36,0001.22
2023-11-21 16:17:00,SystemResetWarning,0840.8,5.00,000.00,019.8,019.3,000.0,027.9,021.1,16.2,0000.0,0003.47,0001.36,0001.23
2023-11-21 16:18:00,SystemResetWarning,0840.8,5.00,000.00,019.9,019.3,000.0,027.9,021.2,16.2,0000.0,0003.54,0001.39,0001.24
2023-11-21 16:19:00,SystemResetWarning,0840.8,5.00,000.00,019.9,019.3,000.0,027.9,021.2,16.3,0000.0,0004.12,0001.39,0001.25
2023-11-21 16:20:00,SystemResetWarning,0840.8,4.99,000.00,019.9,019.4,000.0,028.0,021.2,16.3,0000.0,0004.71,0001.41,0001.25
2023-11-21 16:21:00,SystemResetWarning,0840.8,4.99,000.00,019.9,019.4,000.0,028.0,021.3,16.5,0000.0,0004.76,0001.42,0001.26
2023-11-21 16:22:00,SystemResetWarning,0840.8,5.00,000.00,019.9,019.4,000.0,028.0,021.3,16.3,0000.0,0004.74,0001.42,0001.28
2023-11-21 16:23:00,SystemResetWarning,0840.8,5.00,000.00,020.0,019.4,000.0,028.0,021.3,16.3,0000.0,0004.77,0001.42,0001.29
2023-11-21 16:24:00,SystemResetWarning,0840.8,5.00,000.00,020.0,019.4,000.0,028.0,021.3,16.5,0000.0,0004.95,0001.43,0001.28
2023-11-21 16:25:00,SystemResetWarning,0840.8,5.00,000.00,020.0,019.4,000.0,028.1,021.3,16.4,0000.0,0004.19,0001.44,0001.28
2023-11-21 16:26:00,SystemResetWarning,0840.8,5.00,000.00,020.0,019.5,000.0,028.1,021.4,16.5,0000.0,0003.24,0001.44,0001.28
2023-11-21 16:27:00,SystemResetWarning,0840.8,5.00,000.00,020.0,019.5,000.0,028.1,021.4,16.5,0000.0,0003.29,0001.47,0001.30
2023-11-21 16:28:00,SystemResetWarning,0840.7,5.00,000.00,020.1,019.5,000.0,028.1,021.4,16.5,0000.0,0003.28,0001.47,0001.30
2023-11-21 16:29:00,SystemResetWarning,0840.8,5.00,000.00,020.1,019.5,000.0,028.1,021.4,16.6,0000.0,0003.22,0001.46,0001.31
2023-11-21 16:30:00,SystemResetWarning,0840.8,4.99,000.00,020.1,019.6,000.0,028.1,021.5,16.7,0000.0,0002.84,0001.46,0001.31
2023-11-21 16:31:00,SystemResetWarning,0840.8,5.00,000.00,020.1,019.6,000.0,028.2,021.5,16.6,0000.0,0002.07,0001.45,0001.31
2023-11-21 16:32:00,SystemResetWarning,0840.8,5.00,000.00,020.1,019.6,000.0,028.2,021.5,16.7,0000.0,0002.17,0001.46,0001.31
2023-11-21 16:33:00,SystemResetWarning,0840.8,5.00,000.00,020.2,019.6,000.0,028.2,021.5,16.8,0000.0,0002.19,0001.46,0001.30
2023-11-21 16:34:00,SystemResetWarning,0840.8,5.00,000.00,020.2,019.6,000.0,028.2,021.6,16.7,0000.0,0002.16,0001.45,0001.30
2023-11-21 16:35:00,SystemResetWarning,0840.8,5.00,000.00,020.2,019.7,000.0,028.3,021.6,16.7,0000.0,0002.03,0001.44,0001.31
2023-11-21 16:36:00,SystemResetWarning,0840.7,5.00,000.00,020.2,019.7,000.0,028.3,021.6,16.6,0000.0,0002.08,0001.44,0001.31
2023-11-21 16:37:00,SystemResetWarning,0840.7,5.00,000.00,020.3,019.7,000.0,028.3,021.6,16.5,0000.0,0002.13,0001.46,0001.32
2023-11-21 16:38:00,SystemResetWarning,0840.7,5.00,000.00,020.3,019.7,000.0,028.3,021.6,16.4,0000.0,0002.15,0001.46,0001.31
2023-11-21 16:39:00,SystemResetWarning,0840.7,5.00,000.00,020.3,019.8,000.0,028.3,021.7,16.5,0000.0,0002.21,0001.46,0001.31
2023-11-21 16:40:00,SystemResetWarning,0840.8,5.00,000.00,020.3,019.8,000.0,028.4,021.7,16.3,0000.0,0002.26,0001.46,0001.31
2023-11-21 16:41:00,SystemResetWarning,0840.8,5.00,000.00,020.3,019.8,000.0,028.4,021.7,16.2,0000.0,0002.31,0001.48,0001.30
2023-11-21 16:42:00,SystemResetWarning,0840.8,4.99,000.00,020.4,019.8,000.0,028.4,021.7,15.9,0000.0,0002.36,0001.50,0001.30
2023-11-21 16:43:00,SystemResetWarning,0840.8,5.00,000.00,020.4,019.8,000.0,028.4,021.8,16.0,0000.0,0002.24,0001.49,0001.30
2023-11-21 16:44:00,SystemResetWarning,0840.9,4.99,000.00,020.4,019.9,000.0,028.4,021.8,16.1,0000.0,0002.17,0001.47,0001.31
2023-11-21 16:45:00,SystemResetWarning,0840.8,4.99,000.00,020.4,019.9,000.0,028.5,021.8,16.0,0000.0,0003.16,0001.50,0001.30
2023-11-21 16:46:00,SystemResetWarning,0840.8,5.00,000.00,020.4,019.9,000.0,028.5,021.8,15.9,0000.0,0003.31,0001.51,0001.29
2023-11-21 16:47:00,SystemResetWarning,0840.9,5.00,000.00,020.5,019.9,000.0,028.5,021.8,15.8,0000.0,0003.29,0001.53,0001.30
2023-11-21 16:48:00,SystemResetWarning,0840.8,5.01,000.00,020.5,019.9,000.0,028.5,021.8,15.6,0000.0,0003.30,0001.54,0001.29
2023-11-21 16:49:00,SystemResetWarning,0840.9,5.00,000.00,020.5,020.0,000.0,028.5,021.8,15.6,0000.0,0003.26,0001.53,0001.28
2023-11-21 16:50:00,SystemResetWarning,0840.9,5.00,000.00,020.5,020.0,000.0,028.6,021.9,15.5,0000.0,0003.67,0001.54,0001.27
2023-11-21 16:51:00,SystemResetWarning,0840.8,5.00,000.00,020.5,020.0,000.0,028.6,021.9,15.4,0000.0,0004.54,0001.54,0001.26
2023-11-21 16:52:00,SystemResetWarning,0840.8,5.00,000.00,020.6,020.0,000.0,028.6,021.9,15.4,0000.0,0004.51,0001.53,0001.25
2023-11-21 16:53:00,SystemResetWarning,0840.8,5.00,000.00,020.6,020.1,000.0,028.6,021.9,15.5,0000.0,0004.94,0001.54,0001.25
2023-11-21 16:54:00,SystemResetWarning,0840.8,5.00,000.00,020.6,020.1,000.0,028.6,022.0,15.4,0000.0,0005.28,0001.55,0001.23
2023-11-21 16:55:00,SystemResetWarning,0840.8,5.00,000.00,020.6,020.1,000.0,028.7,022.0,15.3,0000.0,0005.35,0001.54,0001.22
2023-11-21 16:56:00,SystemResetWarning,0840.8,5.00,000.00,020.6,020.1,000.0,028.7,021.9,15.4,0000.0,0004.38,0001.51,0001.22
2023-11-21 16:57:00,SystemResetWarning,0840.7,5.00,000.00,020.6,020.0,000.0,028.7,021.9,15.5,0000.0,0004.17,0001.49,0001.21
2023-11-21 16:58:00,SystemResetWarning,0840.8,5.01,000.00,020.6,020.0,000.0,028.7,021.9,15.5,0000.0,0004.23,0001.46,0001.20
2023-11-21 16:59:00,SystemResetWarning,0840.8,5.00,000.00,020.6,020.1,000.0,028.7,022.0,15.5,0000.0,0004.47,0001.43,0001.19
